ホームズ彗星

17P/Holmes (2007)

English version
Home page
Updated on April 25, 2009

---------------------------------------------------------------------

・ プロフィール

・ 写真集

・ 軌道要素

The following orbital elements are taken from MPC 51822:

Epoch 2007 May 20.0 TT = JDT 2454240.5
T 2007 May 4.4995 TT                                    MPC
q   2.053169             (2000.0)            P               Q
n   0.1432508      Peri.   24.2585      +0.9756506      +0.1267918
a   3.617468       Node   326.8675      -0.2124462      +0.7491399
e   0.432429       Incl.   19.1132      +0.0545208      +0.6501640
P   6.88
From 139 observations 1964-2001, mean residual 0".7.  Nongravitational
     parameters A1 = +0.19, A2 = +0.0287.

・ 星図

・ 光度変化

        m1 =   1.5 + 5 logΔ + 35   log r  [     ,172.5]  (              〜2007年10月24日)
        m1 = -18.2 + 5 logΔ + 50   log r  [172.5,198  ]  (2007年10月24日〜2007年11月18日)
        m1 =   0.0 + 5 logΔ +  5.0 log r  [198  ,450  ]  (2007年11月18日〜2008年 7月27日)
        m1 =   3.5 + 5 logΔ + 20   log r  [450  ,     ]  (2008年 7月27日〜              )

        ※ 灰色の曲線は、m1 = 1.5 + 5 logΔ + 35 log r の光度曲線です。

---------------------------------------------------------------------

軌道要素はMPCのEphemerides and Orbital Elementsに掲載されたものです。
星図はステラナビゲータ Ver.8 (アストロアーツ) で作成したものです。
光度グラフはComet for Windowsで作成したものです。

---------------------------------------------------------------------

Copyright(C) Seiichi Yoshida (comet@aerith.net). All rights reserved.